When you browse on this site, cookies collect data to enhance your experience and personalize the content and advertising you see.
Visit our Privacy Policy to learn more. By continuing to use the site, you agree to this use of cookies and data.
  • In Portugal
  • List of Countries
  • For 7 days
  • Water Temperature
  • Satellite Maps
  • Weather Map
  • Weather Widgets
  • user-avatar
    Login

    Hourly Weather Brisbane

    Today, 23 May, Thursday

    Time Temperature Precipitation Wind Pressure Humidity
    00:00 +18°C° 0 mm 2 mps 767 mmHg 84%
    01:00 +18°C° 0 mm 2 mps 767 mmHg 85%
    02:00 +17°C° 0 mm 2 mps 767 mmHg 85%
    03:00 +17°C° 0 mm 2 mps 767 mmHg 86%
    04:00 +16°C° 0 mm 2 mps 767 mmHg 87%
    05:00 +16°C° 0 mm 2 mps 767 mmHg 87%
    06:00 +16°C° 0 mm 2 mps 767 mmHg 87%
    07:00 +16°C° 0 mm 2 mps 767 mmHg 87%
    08:00 +19°C° 0 mm 2 mps 767 mmHg 78%
    09:00 +21°C° 0 mm 3 mps 767 mmHg 70%
    10:00 +24°C° 0 mm 3 mps 767 mmHg 61%
    11:00 +25°C° 0.1 mm 3 mps 767 mmHg 59%
    12:00 +25°C° 0.1 mm 3 mps 767 mmHg 56%
    13:00 +26°C° 0.1 mm 3 mps 766 mmHg 54%
    14:00 +25°C° 0.1 mm 3 mps 766 mmHg 57%
    15:00 +25°C° 0.1 mm 3 mps 766 mmHg 61%
    16:00 +23°C° 0.1 mm 4 mps 765 mmHg 64%
    17:00 +22°C° 0 mm 3 mps 766 mmHg 69%
    18:00 +21°C° 0 mm 3 mps 766 mmHg 75%
    19:00 +19°C° 0 mm 2 mps 766 mmHg 80%
    20:00 +19°C° 0.1 mm 2 mps 766 mmHg 83%
    21:00 +19°C° 0.1 mm 2 mps 767 mmHg 85%
    22:00 +18°C° 0.1 mm 2 mps 767 mmHg 87%
    23:00 +18°C° 0.1 mm 2 mps 767 mmHg 88%

    Tomorrow, 24 May, Friday

    Time Temperature Precipitation Wind Pressure Humidity
    00:00 +17°C° 0.1 mm 2 mps 766 mmHg 89%
    01:00 +17°C° 0.1 mm 2 mps 766 mmHg 90%
    02:00 +17°C° 0 mm 2 mps 766 mmHg 90%
    03:00 +17°C° 0 mm 2 mps 766 mmHg 90%
    04:00 +17°C° 0 mm 2 mps 766 mmHg 91%
    05:00 +16°C° 0 mm 2 mps 766 mmHg 91%
    06:00 +16°C° 0 mm 2 mps 766 mmHg 90%
    07:00 +16°C° 0 mm 2 mps 766 mmHg 90%
    08:00 +18°C° 0 mm 2 mps 766 mmHg 81%
    09:00 +20°C° 0 mm 2 mps 766 mmHg 71%
    10:00 +24°C° 0 mm 2 mps 766 mmHg 62%
    11:00 +24°C° 0 mm 2 mps 765 mmHg 58%
    12:00 +25°C° 0 mm 2 mps 765 mmHg 54%
    13:00 +26°C° 0 mm 3 mps 764 mmHg 50%
    14:00 +26°C° 0 mm 3 mps 764 mmHg 53%
    15:00 +25°C° 0 mm 3 mps 764 mmHg 55%
    16:00 +24°C° 0 mm 3 mps 763 mmHg 58%
    17:00 +22°C° 0 mm 3 mps 764 mmHg 64%
    18:00 +21°C° 0 mm 2 mps 764 mmHg 70%
    19:00 +20°C° 0 mm 2 mps 764 mmHg 75%
    20:00 +19°C° 0 mm 2 mps 765 mmHg 78%
    21:00 +18°C° 0 mm 2 mps 765 mmHg 80%
    22:00 +19°C° 0 mm 1 mps 765 mmHg 82%
    23:00 +17°C° 0 mm 2 mps 765 mmHg 84%

    Day after tomorrow, 25 May, Saturday

    Time Temperature Precipitation Wind Pressure Humidity
    00:00 +17°C° 0 mm 2 mps 765 mmHg 86%
    01:00 +17°C° 0 mm 2 mps 764 mmHg 88%
    02:00 +16°C° 0 mm 2 mps 764 mmHg 88%
    03:00 +16°C° 0 mm 2 mps 764 mmHg 88%
    04:00 +16°C° 0 mm 2 mps 764 mmHg 89%
    05:00 +16°C° 0 mm 2 mps 764 mmHg 88%
    06:00 +16°C° 0 mm 2 mps 764 mmHg 87%
    07:00 +15°C° 0 mm 2 mps 764 mmHg 86%
    08:00 +18°C° 0 mm 2 mps 764 mmHg 75%
    09:00 +22°C° 0 mm 1 mps 764 mmHg 64%
    10:00 +24°C° 0 mm 1 mps 764 mmHg 53%
    11:00 +25°C° 0 mm 1 mps 763 mmHg 49%
    12:00 +26°C° 0 mm 1 mps 763 mmHg 44%
    13:00 +27°C° 0 mm 1 mps 762 mmHg 40%
    14:00 +27°C° 0 mm 1 mps 762 mmHg 43%
    15:00 +26°C° 0 mm 2 mps 761 mmHg 47%
    16:00 +25°C° 0 mm 2 mps 761 mmHg 50%
    17:00 +24°C° 0 mm 2 mps 762 mmHg 57%
    18:00 +21°C° 0 mm 2 mps 762 mmHg 64%
    19:00 +20°C° 0 mm 2 mps 762 mmHg 70%
    20:00 +21°C° 0 mm 1 mps 762 mmHg 73%
    21:00 +20°C° 0 mm 1 mps 763 mmHg 76%
    22:00 +18°C° 0 mm 0 mps 763 mmHg 78%
    23:00 +19°C° 0 mm 1 mps 763 mmHg 81%

    26 May, Sunday

    Time Temperature Precipitation Wind Pressure Humidity
    00:00 +19°C° 0 mm 1 mps 762 mmHg 83%
    01:00 +18°C° 0 mm 1 mps 762 mmHg 86%
    02:00 +18°C° 0 mm 1 mps 762 mmHg 85%
    03:00 +16°C° 0 mm 2 mps 761 mmHg 84%
    04:00 +16°C° 0 mm 2 mps 761 mmHg 83%
    05:00 +16°C° 0 mm 2 mps 762 mmHg 80%
    06:00 +16°C° 0 mm 2 mps 762 mmHg 78%
    07:00 +16°C° 0 mm 2 mps 762 mmHg 76%
    08:00 +18°C° 0 mm 2 mps 762 mmHg 65%
    09:00 +21°C° 0 mm 2 mps 762 mmHg 54%
    10:00 +24°C° 0 mm 2 mps 762 mmHg 44%
    11:00 +26°C° 0 mm 2 mps 761 mmHg 39%
    12:00 +27°C° 0 mm 2 mps 760 mmHg 33%
    13:00 +28°C° 0 mm 2 mps 760 mmHg 28%
    14:00 +28°C° 0 mm 2 mps 759 mmHg 31%
    15:00 +27°C° 0 mm 2 mps 759 mmHg 33%
    16:00 +26°C° 0 mm 2 mps 759 mmHg 36%
    17:00 +25°C° 0 mm 2 mps 759 mmHg 40%
    18:00 +23°C° 0 mm 2 mps 760 mmHg 44%
    19:00 +20°C° 0 mm 2 mps 760 mmHg 48%
    20:00 +19°C° 0 mm 2 mps 760 mmHg 48%
    21:00 +19°C° 0 mm 2 mps 761 mmHg 47%
    22:00 +18°C° 0 mm 2 mps 761 mmHg 47%
    23:00 +18°C° 0 mm 2 mps 760 mmHg 47%

    27 May, Monday

    Time Temperature Precipitation Wind Pressure Humidity
    00:00 +17°C° 0 mm 2 mps 760 mmHg 48%
    01:00 +17°C° 0 mm 2 mps 760 mmHg 48%
    02:00 +17°C° 0 mm 2 mps 760 mmHg 49%
    03:00 +16°C° 0 mm 2 mps 760 mmHg 49%
    04:00 +16°C° 0 mm 3 mps 760 mmHg 50%
    05:00 +16°C° 0 mm 3 mps 761 mmHg 50%
    06:00 +16°C° 0 mm 3 mps 761 mmHg 51%
    07:00 +16°C° 0 mm 3 mps 762 mmHg 51%
    08:00 +18°C° 0 mm 3 mps 762 mmHg 46%
    09:00 +21°C° 0 mm 3 mps 762 mmHg 41%
    10:00 +23°C° 0 mm 4 mps 762 mmHg 36%
    11:00 +25°C° 0 mm 3 mps 761 mmHg 32%
    12:00 +26°C° 0 mm 3 mps 760 mmHg 28%
    13:00 +27°C° 0 mm 3 mps 760 mmHg 24%
    14:00 +27°C° 0 mm 3 mps 760 mmHg 26%
    15:00 +26°C° 0 mm 3 mps 760 mmHg 27%
    16:00 +26°C° 0 mm 3 mps 760 mmHg 29%
    17:00 +24°C° 0 mm 3 mps 760 mmHg 31%
    18:00 +21°C° 0 mm 3 mps 761 mmHg 33%
    19:00 +19°C° 0 mm 3 mps 761 mmHg 35%
    20:00 +18°C° 0 mm 3 mps 761 mmHg 37%
    21:00 +17°C° 0 mm 3 mps 762 mmHg 38%
    22:00 +16°C° 0 mm 3 mps 762 mmHg 40%
    23:00 +14°C° 0 mm 3 mps 762 mmHg 42%

    28 May, Tuesday

    Time Temperature Precipitation Wind Pressure Humidity
    00:00 +13°C° 0 mm 3 mps 762 mmHg 44%
    01:00 +13°C° 0 mm 3 mps 762 mmHg 47%
    02:00 +12°C° 0 mm 3 mps 762 mmHg 49%
    03:00 +12°C° 0 mm 3 mps 762 mmHg 51%
    04:00 +11°C° 0 mm 3 mps 762 mmHg 54%
    05:00 +11°C° 0 mm 3 mps 762 mmHg 56%
    06:00 +11°C° 0 mm 3 mps 763 mmHg 57%
    07:00 +11°C° 0 mm 3 mps 763 mmHg 59%
    08:00 +13°C° 0 mm 3 mps 763 mmHg 52%
    09:00 +17°C° 0 mm 2 mps 763 mmHg 45%
    10:00 +20°C° 0 mm 2 mps 763 mmHg 38%
    11:00 +22°C° 0 mm 1 mps 762 mmHg 34%
    12:00 +24°C° 0 mm 1 mps 761 mmHg 30%
    13:00 +24°C° 0 mm 0 mps 761 mmHg 25%
    14:00 +25°C° 0 mm 1 mps 761 mmHg 28%
    15:00 +24°C° 0 mm 1 mps 760 mmHg 31%
    16:00 +24°C° 0 mm 2 mps 760 mmHg 34%
    17:00 +21°C° 0 mm 2 mps 761 mmHg 39%
    18:00 +19°C° 0 mm 2 mps 761 mmHg 44%
    19:00 +17°C° 0 mm 2 mps 762 mmHg 49%
    20:00 +16°C° 0 mm 2 mps 762 mmHg 49%
    21:00 +16°C° 0 mm 2 mps 762 mmHg 49%
    22:00 +15°C° 0 mm 2 mps 762 mmHg 49%
    23:00 +14°C° 0 mm 2 mps 762 mmHg 50%
    Show more